Regional Weather Roundup
Issued by NWS

Home | Current Version | Previous Version | Text Only | Print | Product List | Glossary Off
Versions: 1 2 3 4 5 6 7 8 9 10 11 12 13 14 15 16 17 18 19 20 21 22 23 24 25 26 27 28 29 30 31 32 33 34 35 36 37 38 39 40 41 42 43 44 45 46 47 48 49 50

000
ASUS43 KDTX 211410
RWRMI
MICHIGAN HOURLY REGIONAL WEATHER ROUNDUP
NATIONAL WEATHER SERVICE DETROIT/PONTIAC MI
1000 AM EDT MON AUG 21 2017

NOTE: "FAIR" INDICATES FEW OR NO CLOUDS BELOW 12,000 FEET WITH NO
SIGNIFICANT WEATHER AND/OR OBSTRUCTION TO VISIBILITY.

MIZ047>049-052>055-059>063-066>070-074>076-081>083-211500-
SOUTHEAST LOWER MICHIGAN

CITY           SKY/WX    TMP DP  RH WIND       PRES   REMARKS
ADRIAN         MOSUNNY   77  62  59 S7        30.11F
ALMA           CLOUDY    75  66  73 SW5       30.10F
ANN ARBOR      CLOUDY    76  69  79 S5        30.10F
BAD AXE        SUNNY     76  66  69 W6        30.10S
CARO           MOSUNNY   78  66  66 SW7       30.10S
DETROIT CITY   SUNNY     81  68  64 SW6       30.10S
DETROIT        PTSUNNY   80  70  71 CALM      30.11F
FLINT          SUNNY     78  67  68 SW5       30.11S
GROSSE ILE     CLOUDY    76  70  84 CALM      30.09F
HILLSDALE      CLOUDY    77  68  73 S5        30.11S
HOWELL         CLOUDY    79  65  63 SW6       30.11S

CITY           SKY/WX    TMP DP  RH WIND       PRES   REMARKS
JACKSON        CLOUDY    79  66  64 SE6       30.10F
LAMBERTVILLE   CLOUDY    77  69  76 CALM      30.10S
LANSING        CLOUDY    79  64  60 S3        30.10F
LAPEER         FAIR      78  65  64 SW5       30.11S
MASON          MOSUNNY   78  66  65 CALM      30.10F
MONROE         MOSUNNY   77  70  78 CALM      30.10F
MT. CLEMENS    MOSUNNY   81  70  68 CALM      30.09F
PONTIAC        MOSUNNY   78  67  68 SW5       30.11S
PORT HOPE        N/A     77  65  66 W6        30.07S
PORT HURON     SUNNY     79  70  73 CALM      30.11S
TRI CITIES     CLOUDY    76  68  76 SW8       30.10S
MIDLAND        FAIR      77  66  70 SW5       30.08F
TROY           MOSUNNY   79  67  66 SW6       30.12F
SAGINAW HB     SUNNY     77  64  65 SW7       30.09S
$$
MIZ043>046-050>051-056>058-064>065-071>073-077>080-211500-
SOUTHWEST LOWER MICHIGAN

CITY           SKY/WX    TMP DP  RH WIND       PRES   REMARKS
BATTLE CREEK   PTSUNNY   76  68  76 S7        30.10S
BENTON HARBOR  MOSUNNY   78  67  68 SW5       30.06F
BIG RAPIDS     CLOUDY    69  64  83 SW6       30.08F
COLDWATER      SUNNY     79  67  68 SW5       30.10S
FREMONT        FAIR      74  69  85 CALM      30.07S
HOLLAND        CLOUDY    76  68  76 S6        30.07F
GRAND RAPIDS   CLOUDY    75  68  78 SE3       30.08F
IONIA          FAIR      75  65  71 CALM      30.08F
KALAMAZOO      CLOUDY    78  66  66 S5        30.08S
LUDINGTON      CLOUDY    73  68  83 CALM      30.05F
MARSHALL       CLOUDY    75  67  76 S3        30.10R
MOUNT PLEASANT CLOUDY    78  65  64 CALM      30.08S
MUSKEGON       CLOUDY    79  69  71 SW9       30.06F
SOUTH HAVEN    PTSUNNY   76  68  77 SW5       30.06F
$$
MIZ016>042-211500-
NORTHERN LOWER MICHIGAN

CITY           SKY/WX    TMP DP  RH WIND       PRES   REMARKS
ALPENA         CLOUDY    73  67  81 SW3       30.07S
BEAVER ISLAND  PTSUNNY   76  68  77 W3        30.05S
BELLAIRE       PTSUNNY   73  64  74 CALM      30.06S
CADILLAC       CLOUDY    75  65  73 SW3       30.08F
CHARLEVOIX     MOSUNNY   74  69  86 W5        30.08S
FRANKFORT      CLOUDY    76  70  80 CALM      30.05F
GAYLORD        MOSUNNY   71  64  78 W6        30.09S
GRAYLING       MOSUNNY   74  63  69 W5        30.09S
HARBOR SPRINGS SUNNY     73  67  82 SW3       30.06S
HOUGHTON LAKE  CLOUDY    71  63  75 W5        30.10S
MANISTEE       CLOUDY    71  67  87 E5        30.05F
OSCODA         SUNNY     78  64  62 W6        30.06F
PELLSTON       SUNNY     75  67  76 SW3       30.05F
ROGERS CITY    MOSUNNY   74  67  77 W5        30.06F
TRAVERSE CITY  MOSUNNY   76  66  71 S5        30.04S
$$
MIZ007>008-015-211500-
EASTERN UPPER MICHIGAN

CITY           SKY/WX    TMP DP  RH WIND       PRES   REMARKS
KINROSS        SUNNY     72  65  78 VRB5      30.06S
MACKINAC ISLAN PTSUNNY   70  70 100 W8        30.05S
NEWBERRY       MOSUNNY   69  65  86 W5        30.04S
S. S. MARIE    SUNNY     71  64  78 W7        30.04S
MUNISING         N/A     69  58  67 NW10      30.04S
$$
MIZ004>006-011>014-085-211500-
CENTRAL UPPER MICHIGAN

CITY           SKY/WX    TMP DP  RH WIND       PRES   REMARKS
MANISTIQUE     MOSUNNY   72  60  65 N5        30.04S
MENOMINEE      MOSUNNY   72  64  76 N3        30.05S
SAWYER-GWINN   SUNNY     66  57  72 NW3       30.06F
$$
MIZ001>003-009>011-084-211500-
WESTERN UPPER MICHIGAN

CITY           SKY/WX    TMP DP  RH WIND       PRES   REMARKS
IRON MOUNTAIN  SUNNY     71  55  56 NW5       30.06F
HOUGHTON       CLOUDY    64  56  75 NW7       30.03F
COPPER HARBOR    N/A     67  54  63 CALM      30.02F
IRONWOOD       CLOUDY    63  59  87 CALM      30.06F
$$

ABBREVIATIONS USED IN REMARKS
   TC - TEMPERATURE IN CELSIUS
  WCI - WIND CHILL INDEX
   HX - HEAT INDEX
  VSB - VISIBILITY





USA.gov is the U.S. government's official web portal to all federal, state and local government web resources and services.